GW0681 Weather Reports


Display with metric or nautical units.
time (UTC)temp
F
wind
direction
speed
MPH
gust
MPH
rain 1hr
in
rain 24hr
in
rain mn
in
humidity
%
barometer
mb
20260507115040 66 314 4.0 11.0 0.00 0.14 0.00 65 1007.0
20260507114555 67 315 5.0 11.0 0.00 0.14 0.00 64 1007.0
20260507114040 67 80 5.0 11.0 0.00 0.14 0.00 61 1007.0
20260507113545 67 72 6.0 10.0 0.00 0.14 0.00 62 1007.1
20260507113051 67 3 5.0 10.0 0.00 0.14 0.00 63 1007.0
20260507112544 68 44 5.0 7.0 0.00 0.14 0.00 62 1006.9
20260507112042 68 333 2.0 8.0 0.00 0.14 0.00 62 1007.0
20260507111551 67 68 1.0 8.0 0.00 0.14 0.00 63 1007.0
20260507111042 67 74 4.0 8.0 0.00 0.14 0.00 64 1007.1
20260507110542 66 248 2.0 11.0 0.00 0.14 0.00 67 1007.0
20260507110051 66 20 5.0 11.0 0.00 0.14 0.00 67 1007.2
20260507105541 66 340 5.0 11.0 0.00 0.15 0.00 67 1007.2
20260507105044 66 302 7.0 11.0 0.00 0.15 0.00 68 1007.3
20260507104554 65 104 6.0 10.0 0.00 0.15 0.00 68 1007.3
20260507104041 65 282 4.0 10.0 0.00 0.15 0.00 68 1007.5
20260507103544 65 284 2.0 9.0 0.00 0.15 0.00 70 1007.6
20260507103049 65 51 4.0 8.0 0.00 0.15 0.00 70 1007.7
20260507102542 64 324 4.0 8.0 0.00 0.15 0.00 69 1007.8
20260507102043 65 324 3.0 8.0 0.00 0.15 0.00 69 1007.9
20260507101558 65 295 4.0 7.0 0.00 0.15 0.00 69 1007.9
20260507101042 64 50 3.0 6.0 0.00 0.15 0.00 71 1008.0
20260507100542 64 304 2.0 5.0 0.00 0.15 0.00 71 1008.1
20260507100058 64 328 2.0 4.0 0.00 0.15 0.00 71 1008.1
20260507095542 64 103 1.0 4.0 0.00 0.15 0.00 70 1008.2
20260507095041 66 242 1.0 3.0 0.00 0.15 0.00 68 1008.2
20260507094550 65 75 0.0 4.0 0.00 0.15 0.00 71 1008.2
20260507094043 65 98 2.0 4.0 0.00 0.15 0.00 70 1008.2
20260507093542 66 84 0.0 1.0 0.00 0.15 0.00 70 1008.2
20260507093100 65 81 0.0 4.0 0.00 0.15 0.00 71 1008.3
20260507092542 65 97 1.0 4.0 0.00 0.15 0.00 72 1008.3
20260507092041 65 101 0.0 4.0 0.00 0.15 0.00 71 1008.4
20260507091550 64 0 1.0 4.0 0.00 0.15 0.00 73 1008.4
20260507091042 64 0 1.0 4.0 0.00 0.15 0.00 73 1008.6
20260507090542 63 93 0.0 3.0 0.00 0.15 0.00 73 1008.6
20260507090051 62 101 1.0 3.0 0.00 0.15 0.00 77 1008.7
20260507085542 62 124 1.0 3.0 0.00 0.16 0.00 76 1008.8
20260507085041 61 115 0.0 3.0 0.00 0.16 0.00 79 1008.9
20260507084551 60 84 0.0 5.0 0.00 0.16 0.00 80 1008.9
20260507084041 60 83 2.0 6.0 0.00 0.16 0.00 78 1008.9
20260507083541 60 97 2.0 6.0 0.00 0.16 0.00 81 1008.9
20260507083120 60 109 3.0 6.0 0.00 0.16 0.00 81 1009.0
20260507082541 60 103 2.0 6.0 0.00 0.16 0.00 81 1008.9
20260507082045 60 120 2.0 6.0 0.00 0.16 0.00 83 1008.8
20260507081600 60 112 2.0 6.0 0.00 0.16 0.00 82 1008.9
20260507081042 60 121 3.0 6.0 0.00 0.16 0.00 81 1008.9
20260507080542 60 103 2.0 5.0 0.00 0.16 0.00 83 1008.8
20260507080056 59 101 3.0 5.0 0.00 0.16 0.00 83 1008.9
20260507075544 59 108 2.0 5.0 0.00 0.16 0.00 84 1008.8
20260507075042 59 120 2.0 6.0 0.00 0.16 0.00 84 1008.8
20260507074606 59 98 2.0 6.0 0.00 0.16 0.00 85 1008.8
20260507074042 58 94 1.0 4.0 0.00 0.16 0.00 86 1008.9
20260507073542 58 102 2.0 5.0 0.00 0.16 0.00 85 1008.7
20260507073100 58 101 1.0 6.0 0.00 0.16 0.00 87 1008.8
20260507072542 58 118 3.0 6.0 0.00 0.16 0.00 86 1008.7
20260507072043 58 97 2.0 5.0 0.00 0.16 0.00 87 1008.7
20260507071553 57 105 2.0 5.0 0.00 0.16 0.00 88 1008.7
20260507071042 57 104 3.0 5.0 0.00 0.16 0.00 88 1008.7
20260507070542 57 120 4.0 5.0 0.00 0.16 0.00 88 1008.7
20260507070055 56 104 0.0 4.0 0.00 0.16 0.00 90 1008.7
20260507065541 56 108 2.0 4.0 0.00 0.17 0.00 89 1008.6
20260507065042 56 106 3.0 4.0 0.00 0.17 0.00 89 1008.6
20260507064557 56 96 1.0 2.0 0.00 0.17 0.00 89 1008.7
20260507064045 56 0 0.0 1.0 0.00 0.17 0.00 90 1008.7
20260507063543 55 0 0.0 1.0 0.00 0.17 0.00 90 1008.7
20260507063051 55 0 0.0 2.0 0.00 0.17 0.00 91 1008.8
20260507062541 55 0 0.0 2.0 0.00 0.17 0.00 91 1008.7
20260507062042 54 0 0.0 3.0 0.00 0.17 0.00 91 1008.8
20260507061551 54 25 1.0 3.0 0.00 0.17 0.00 90 1008.6
20260507061043 54 326 2.0 3.0 0.00 0.17 0.00 90 1008.5
20260507060544 54 65 0.0 1.0 0.00 0.17 0.00 90 1008.7
20260507060052 54 0 0.0 0.0 0.00 0.17 0.00 89 1008.7
20260507055542 54 0 0.0 0.0 0.00 0.16 0.00 89 1008.7
20260507055042 54 0 0.0 0.0 0.00 0.16 0.00 89 1008.8
20260507054551 54 0 0.0 1.0 0.00 0.16 0.00 89 1008.7
20260507054042 54 0 0.0 1.0 0.00 0.16 0.00 89 1008.6
20260507053542 54 67 0.0 1.0 0.00 0.16 0.00 90 1008.5
20260507053048 54 0 0.0 1.0 0.00 0.16 0.00 90 1008.5
20260507052542 54 0 0.0 1.0 0.00 0.16 0.00 91 1008.4
20260507052042 54 59 0.0 1.0 0.00 0.16 0.00 92 1008.3
20260507051549 54 58 0.0 1.0 0.00 0.16 0.00 93 1008.3
20260507051042 54 0 0.0 1.0 0.00 0.16 0.00 93 1008.2
20260507050546 54 58 0.0 1.0 0.00 0.16 0.00 93 1008.2
20260507050047 54 0 0.0 1.0 0.00 0.16 0.00 93 1008.2
20260507045542 54 86 0.0 1.0 0.00 0.16 0.00 93 1008.1
20260507045043 54 0 0.0 1.0 0.00 0.16 0.00 93 1008.0
20260507044551 54 0 0.0 1.0 0.00 0.16 0.00 93 1008.0
20260507044042 54 0 0.0 1.0 0.00 0.16 0.00 94 1008.0
20260507043542 54 0 0.0 1.0 0.00 0.16 0.00 94 1007.9
20260507043052 53 86 0.0 1.0 0.00 0.16 0.00 95 1008.0
20260507042542 53 0 0.0 0.0 0.00 0.16 0.00 94 1007.9
20260507042042 53 0 0.0 0.0 0.00 0.16 0.00 94 1007.9
20260507041551 53 0 0.0 1.0 0.00 0.16 0.00 94 1007.9
20260507041045 53 0 0.0 2.0 0.00 0.16 0.00 94 1007.8
20260507040542 53 89 0.0 2.0 0.00 0.16 0.00 94 1007.6
20260507040052 53 90 1.0 2.0 0.00 0.16 0.00 94 1007.7
20260507035543 53 0 0.0 0.0 0.00 0.17 0.00 94 1007.7
20260507035043 53 0 0.0 0.0 0.00 0.17 0.00 94 1007.7
20260507034549 53 0 0.0 0.0 0.00 0.17 0.00 94 1007.6
20260507034042 53 0 0.0 0.0 0.00 0.17 0.00 94 1007.6
20260507033542 53 0 0.0 0.0 0.00 0.17 0.00 94 1007.6
20260507033052 53 0 0.0 0.0 0.00 0.17 0.00 94 1007.5
20260507032545 53 0 0.0 0.0 0.00 0.17 0.00 94 1007.5
20260507032046 53 0 0.0 0.0 0.00 0.17 0.00 93 1007.4
20260507031551 53 0 0.0 0.0 0.00 0.17 0.00 93 1007.5
20260507031047 53 0 0.0 0.0 0.00 0.17 0.00 93 1007.6
20260507030542 53 0 0.0 0.0 0.00 0.17 0.00 93 1007.5
20260507030051 53 0 0.0 0.0 0.00 0.17 0.00 93 1007.6
20260507025546 53 0 0.0 0.0 0.00 0.22 0.00 92 1007.5
20260507025047 53 0 0.0 0.0 0.00 0.22 0.00 92 1007.5
20260507024602 53 0 0.0 0.0 0.00 0.22 0.00 92 1007.5
20260507024045 53 0 0.0 0.0 0.00 0.22 0.00 92 1007.5
20260507023549 53 0 0.0 0.0 0.00 0.22 0.00 92 1007.5
20260507023052 53 0 0.0 0.0 0.00 0.22 0.00 92 1007.5
20260507022545 53 0 0.0 0.0 0.00 0.22 0.00 92 1007.5
20260507022043 53 0 0.0 0.0 0.00 0.22 0.00 92 1007.5
20260507021551 53 0 0.0 1.0 0.00 0.22 0.00 92 1007.5
20260507021042 53 0 0.0 2.0 0.00 0.22 0.00 93 1007.5
20260507020542 53 76 1.0 2.0 0.00 0.22 0.00 94 1007.5
20260507020107 53 0 0.0 1.0 0.00 0.22 0.00 94 1007.5
20260507015542 52 0 0.0 1.0 0.00 0.23 0.00 94 1007.4
20260507015042 52 0 0.0 0.0 0.00 0.23 0.00 94 1007.4
20260507014603 52 0 0.0 1.0 0.00 0.23 0.00 94 1007.4
20260507014041 52 0 0.0 1.0 0.00 0.23 0.00 94 1007.5
20260507013542 52 0 0.0 1.0 0.00 0.23 0.00 94 1007.6
20260507013052 52 0 0.0 1.0 0.00 0.23 0.00 94 1007.6
20260507012542 52 0 0.0 1.0 0.00 0.23 0.00 94 1007.6
20260507012044 52 0 0.0 1.0 0.00 0.23 0.00 94 1007.6
20260507011549 52 0 0.0 1.0 0.00 0.23 0.00 93 1007.4
20260507011042 52 0 0.0 1.0 0.00 0.23 0.00 93 1007.5
20260507010542 52 82 0.0 2.0 0.00 0.23 0.00 93 1007.5
20260507010050 52 0 0.0 2.0 0.00 0.23 0.00 92 1007.4
20260507005542 53 0 0.0 0.0 0.00 0.23 0.00 92 1007.5
20260507005043 53 0 0.0 0.0 0.00 0.23 0.00 91 1007.4
20260507004547 53 0 0.0 0.0 0.00 0.23 0.00 92 1007.4
20260507004042 53 0 0.0 1.0 0.00 0.23 0.00 93 1007.4
20260507003542 53 0 0.0 1.0 0.00 0.23 0.00 93 1007.4
20260507003049 52 67 0.0 1.0 0.00 0.23 0.00 94 1007.3
20260507002542 52 66 0.0 1.0 0.00 0.23 0.00 93 1007.3
20260507002045 52 67 0.0 1.0 0.00 0.23 0.00 93 1007.3
20260507001554 53 0 0.0 1.0 0.00 0.23 0.00 93 1007.2
20260507001041 53 88 0.0 1.0 0.00 0.23 0.00 93 1007.3
20260507000546 52 88 0.0 2.0 0.00 0.23 0.00 93 1007.2
20260507000055 52 0 0.0 2.0 0.00 0.23 0.00 93 1007.2
20260506235546 52 88 0.0 2.0 0.00 0.23 0.00 93 1007.2
20260506235044 52 0 0.0 1.0 0.00 0.23 0.00 93 1007.3
20260506234556 52 0 0.0 0.0 0.00 0.23 0.00 92 1007.2
20260506234042 52 0 0.0 2.0 0.00 0.23 0.00 91 1007.2
20260506233543 52 0 0.0 2.0 0.00 0.23 0.00 91 1007.3
20260506233054 53 96 1.0 2.0 0.00 0.23 0.00 89 1007.2
20260506232543 53 0 0.0 2.0 0.00 0.23 0.00 90 1007.3
20260506232042 53 93 0.0 5.0 0.00 0.23 0.00 90 1007.2
20260506231559 53 0 1.0 5.0 0.00 0.23 0.00 91 1007.2
20260506231042 53 59 2.0 3.0 0.00 0.23 0.00 92 1007.2
20260506230542 52 0 0.0 1.0 0.00 0.23 0.00 93 1007.2
20260506230058 53 0 0.0 2.0 0.00 0.23 0.00 93 1007.2
20260506225542 53 89 0.0 2.0 0.00 0.23 0.00 93 1007.3
20260506225042 53 90 1.0 2.0 0.00 0.23 0.00 93 1007.3
20260506224600 53 0 0.0 0.0 0.00 0.23 0.00 93 1007.3
20260506224041 53 0 0.0 1.0 0.00 0.23 0.00 93 1007.3
20260506223542 53 0 0.0 1.0 0.00 0.23 0.00 93 1007.2
20260506223059 53 0 0.0 1.0 0.00 0.23 0.00 92 1007.3
20260506222542 53 0 0.0 2.0 0.00 0.23 0.00 92 1007.2
20260506222043 53 0 0.0 2.0 0.00 0.23 0.00 91 1007.2
20260506221557 54 0 0.0 1.0 0.00 0.23 0.00 91 1007.2
20260506221042 54 0 0.0 1.0 0.00 0.23 0.00 90 1007.2
20260506220542 54 0 0.0 1.0 0.00 0.23 0.00 90 1007.3
20260506220057 55 85 0.0 4.0 0.00 0.23 0.00 89 1007.3
20260506215543 55 0 0.0 4.0 0.00 0.23 0.23 88 1007.3
20260506215042 55 91 1.0 3.0 0.00 0.23 0.23 89 1007.2
20260506214553 55 80 1.0 5.0 0.00 0.23 0.23 90 1007.3
20260506214042 54 33 2.0 5.0 0.00 0.23 0.23 91 1007.1
20260506213544 54 326 3.0 5.0 0.00 0.23 0.23 92 1007.1
20260506213113 54 42 1.0 2.0 0.00 0.23 0.23 92 1007.1
20260506212542 54 0 0.0 2.0 0.00 0.23 0.23 92 1007.0
20260506212042 54 0 0.0 3.0 0.00 0.23 0.23 92 1007.0
20260506211608 54 0 2.0 3.0 0.00 0.23 0.23 92 1006.9
20260506211042 54 0 0.0 1.0 0.00 0.23 0.23 93 1006.9
20260506210542 54 0 0.0 3.0 0.00 0.23 0.23 93 1006.9
20260506210050 53 75 0.0 3.0 0.00 0.23 0.23 93 1006.9
20260506205542 53 94 3.0 3.0 0.00 0.23 0.23 92 1006.8
20260506205042 54 95 0.0 4.0 0.00 0.23 0.23 92 1006.9
20260506204556 54 98 1.0 4.0 0.00 0.23 0.23 92 1006.9
20260506204043 54 105 2.0 3.0 0.00 0.23 0.23 92 1006.8
20260506203542 53 18 2.0 2.0 0.00 0.23 0.23 92 1006.7
20260506203052 53 52 0.0 2.0 0.00 0.23 0.23 92 1006.8
20260506202542 53 0 0.0 2.0 0.00 0.23 0.23 92 1006.8
20260506202045 53 10 1.0 3.0 0.00 0.23 0.23 92 1006.8
20260506201601 53 8 2.0 3.0 0.00 0.23 0.23 91 1006.7
20260506201042 53 70 0.0 1.0 0.00 0.23 0.23 91 1006.6
20260506200542 54 0 0.0 0.0 0.00 0.23 0.23 91 1006.4
20260506200058 54 0 0.0 3.0 0.00 0.23 0.23 91 1006.3
20260506195543 54 0 2.0 3.0 0.00 0.26 0.23 90 1006.1
20260506195042 54 93 0.0 3.0 0.00 0.26 0.23 89 1006.0
20260506194609 55 99 1.0 5.0 0.00 0.26 0.23 88 1005.9
20260506194045 55 95 2.0 5.0 0.00 0.26 0.23 88 1005.9
20260506193542 55 98 2.0 5.0 0.00 0.26 0.23 87 1005.8
20260506193053 55 89 3.0 5.0 0.00 0.26 0.23 87 1005.7
20260506192543 54 79 1.0 3.0 0.00 0.26 0.23 89 1005.7
20260506192042 54 63 0.0 1.0 0.00 0.26 0.23 90 1005.5
20260506191551 53 39 0.0 1.0 0.00 0.26 0.23 90 1005.5
20260506191044 54 0 0.0 1.0 0.00 0.26 0.23 90 1005.5
20260506190542 54 0 0.0 3.0 0.00 0.26 0.23 89 1005.5
20260506190054 54 10 1.0 3.0 0.00 0.26 0.23 88 1005.4
20260506185542 55 8 1.0 2.0 0.00 0.26 0.23 85 1005.4
20260506185045 55 0 0.0 4.0 0.00 0.26 0.23 85 1005.2
20260506184604 55 82 2.0 4.0 0.00 0.26 0.23 86 1005.2
20260506184042 55 88 2.0 6.0 0.00 0.26 0.23 86 1005.1
20260506183542 56 100 2.0 6.0 0.00 0.26 0.23 85 1005.2
20260506183104 56 89 3.0 6.0 0.00 0.26 0.23 85 1005.2
20260506182541 56 101 1.0 4.0 0.00 0.26 0.23 85 1005.3
20260506182044 56 96 3.0 4.0 0.00 0.26 0.23 86 1005.2
20260506181552 56 95 2.0 4.0 0.00 0.26 0.23 87 1005.1
20260506181042 56 91 1.0 3.0 0.00 0.26 0.23 87 1005.1
20260506180541 56 91 2.0 4.0 0.00 0.26 0.23 86 1005.0
20260506180058 57 96 2.0 4.0 0.00 0.26 0.23 85 1005.0
20260506175545 57 98 1.0 4.0 0.00 0.26 0.23 84 1005.0
20260506175042 57 87 1.0 4.0 0.00 0.26 0.23 84 1004.9
20260506174552 57 95 2.0 4.0 0.00 0.26 0.23 84 1004.8
20260506174041 57 93 2.0 4.0 0.00 0.26 0.23 84 1004.7
20260506173542 57 81 2.0 5.0 0.00 0.26 0.23 85 1004.6
20260506173053 58 92 2.0 5.0 0.00 0.26 0.23 86 1004.6
20260506172544 58 88 1.0 3.0 0.00 0.26 0.23 86 1004.5
20260506172044 59 94 2.0 3.0 0.00 0.26 0.23 85 1004.5
20260506171549 59 90 1.0 3.0 0.00 0.26 0.23 83 1004.5
20260506171044 60 0 0.0 4.0 0.00 0.26 0.23 83 1004.4
20260506170542 60 99 2.0 4.0 0.00 0.26 0.23 82 1004.2
20260506170107 60 100 1.0 4.0 0.00 0.26 0.23 83 1004.1
20260506165543 60 98 1.0 4.0 0.00 0.26 0.23 83 1004.2
20260506165046 60 0 1.0 5.0 0.00 0.26 0.23 84 1004.2
20260506164551 60 0 2.0 5.0 0.00 0.26 0.23 83 1004.2
20260506164041 60 100 2.0 5.0 0.00 0.26 0.23 81 1004.2
20260506163541 60 89 2.0 5.0 0.00 0.26 0.23 78 1004.0
20260506163102 60 84 1.0 6.0 0.00 0.26 0.23 78 1004.1
20260506162542 60 41 2.0 6.0 0.00 0.26 0.23 78 1004.1
20260506162044 60 84 3.0 5.0 0.00 0.26 0.23 79 1004.0
20260506161544 60 63 1.0 3.0 0.00 0.26 0.23 81 1004.0
20260506161043 60 66 1.0 3.0 0.00 0.26 0.23 81 1004.0
20260506160542 60 0 1.0 4.0 0.00 0.26 0.23 82 1004.0
20260506160050 60 43 2.0 4.0 0.00 0.26 0.23 82 1004.0
20260506155542 60 23 2.0 6.0 0.00 0.26 0.23 82 1004.0
20260506155044 59 37 3.0 6.0 0.00 0.26 0.23 83 1004.1
20260506154553 59 49 2.0 6.0 0.00 0.26 0.23 85 1004.2
20260506154042 59 65 0.0 6.0 0.00 0.26 0.23 84 1004.3
20260506153542 59 65 1.0 9.0 0.00 0.26 0.23 82 1004.3
20260506153051 59 86 4.0 9.0 0.00 0.26 0.23 82 1004.3
20260506152541 59 114 5.0 8.0 0.00 0.26 0.23 80 1004.3
20260506152042 59 96 5.0 9.0 0.00 0.26 0.23 80 1004.4
20260506151550 59 78 6.0 9.0 0.00 0.26 0.23 81 1004.4
20260506151046 59 91 2.0 5.0 0.00 0.26 0.23 82 1004.6
20260506150542 59 60 3.0 5.0 0.00 0.26 0.23 84 1004.6
20260506150048 59 66 3.0 4.0 0.00 0.26 0.23 83 1004.6
20260506145544 59 83 1.0 7.0 0.00 0.26 0.23 84 1004.6
20260506145047 59 33 2.0 7.0 0.00 0.26 0.23 82 1004.6
20260506144601 59 325 3.0 7.0 0.00 0.26 0.23 83 1004.7
20260506144042 59 285 2.0 9.0 0.00 0.26 0.23 84 1004.7
20260506143542 59 66 3.0 9.0 0.00 0.26 0.23 83 1004.7
20260506143049 58 350 5.0 17.0 0.00 0.26 0.23 82 1004.7
20260506142542 58 322 6.0 17.0 0.00 0.26 0.23 81 1004.9
20260506142041 58 304 5.0 10.0 0.01 0.26 0.23 83 1005.0
20260506141550 58 348 3.0 10.0 0.03 0.26 0.23 84 1005.0
20260506141042 58 295 6.0 17.0 0.04 0.26 0.23 84 1005.2
20260506140542 58 324 11.0 17.0 0.07 0.26 0.23 83 1005.2
20260506140049 58 270 9.0 16.0 0.10 0.26 0.23 86 1005.1
20260506135541 57 263 10.0 16.0 0.11 0.26 0.23 87 1005.0
20260506135041 57 266 9.0 13.0 0.11 0.26 0.23 88 1005.1
20260506134546 57 293 8.0 13.0 0.11 0.26 0.23 88 1005.2
20260506134042 56 278 8.0 11.0 0.11 0.26 0.23 90 1005.1
20260506133541 56 285 6.0 12.0 0.11 0.26 0.23 89 1005.2
20260506133045 56 278 8.0 13.0 0.11 0.25 0.22 88 1005.2
20260506132542 56 316 6.0 15.0 0.11 0.25 0.22 89 1005.2
20260506132046 57 314 6.0 15.0 0.10 0.25 0.22 89 1005.4
20260506131544 57 328 10.0 15.0 0.08 0.23 0.20 88 1005.3
20260506131045 57 46 3.0 11.0 0.07 0.22 0.18 89 1005.4
20260506130542 58 105 5.0 11.0 0.03 0.18 0.14 89 1005.0
20260506130058 58 106 6.0 9.0 0.01 0.16 0.13 88 1004.5
20260506125543 59 122 3.0 11.0 0.00 0.16 0.12 87 1004.4
20260506125041 59 51 5.0 11.0 0.00 0.15 0.11 86 1004.5
20260506124549 60 147 5.0 10.0 0.00 0.15 0.11 84 1004.6
20260506124042 61 134 3.0 8.0 0.00 0.15 0.11 84 1004.4
20260506123541 61 102 3.0 8.0 0.00 0.15 0.11 85 1004.4
20260506123049 61 121 6.0 8.0 0.00 0.15 0.11 83 1004.3
20260506122541 62 141 3.0 8.0 0.00 0.15 0.11 82 1004.3
20260506122041 62 129 4.0 8.0 0.00 0.15 0.11 82 1004.3
20260506121549 62 107 3.0 8.0 0.00 0.15 0.11 83 1004.4
20260506121041 62 113 3.0 6.0 0.00 0.15 0.11 84 1004.4
20260506120542 62 110 2.0 5.0 0.01 0.15 0.11 84 1004.6
20260506120052 61 97 2.0 5.0 0.02 0.15 0.11 83 1004.6
20260506115541 60 120 4.0 5.0 0.03 0.18 0.11 83 1004.6